Time,TemperatureF,DewpointF,PressureIn,WindDirection,WindDirectionDegrees,WindSpeedMPH,WindSpeedGustMPH,Humidity,HourlyPrecipIn,Conditions,Clouds,dailyrainin,SoftwareType,DateUTC
2013-01-13 00:00:00,44.4,17.7,29.76,North,350,1.0,4.0,34,0.00,CLR,CLR,0.00,WeatherDisplay:10.37,2013-01-13 05:00:00,
2013-01-13 00:01:00,44.2,17.6,29.77,South,180,3.8,0.0,34,0.00,CLR,,0.00,WeatherDisplay:10.37,2013-01-13 05:01:00,
2013-01-13 00:02:00,44.2,17.6,29.77,South,180,3.5,0.0,34,0.00,CLR,,0.00,WeatherDisplay:10.37,2013-01-13 05:02:00,
2013-01-13 00:03:00,44.2,17.6,29.76,South,180,0.0,0.0,34,0.00,CLR,,0.00,WeatherDisplay:10.37,2013-01-13 05:03:00,
2013-01-13 00:04:00,44.2,17.6,29.76,South,180,0.0,0.0,34,0.00,CLR,,0.00,WeatherDisplay:10.37,2013-01-13 05:04:00,
2013-01-13 00:09:00,44.2,16.9,29.75,South,180,0.3,0.3,33,0.00,CLR,,0.00,WeatherDisplay:10.37,2013-01-13 05:09:00,
2013-01-13 00:14:00,44.1,16.8,29.75,NNW,337,2.4,2.4,33,0.00,CLR,,0.00,WeatherDisplay:10.37,2013-01-13 05:14:00,
2013-01-13 00:19:00,44.1,16.8,29.75,NNW,337,2.4,0.0,33,0.00,CLR,,0.00,WeatherDisplay:10.37,2013-01-13 05:19:00,
2013-01-13 00:24:00,44.1,16.8,29.75,NNW,337,2.4,0.0,33,0.00,CLR,,0.00,WeatherDisplay:10.37,2013-01-13 05:24:00,
2013-01-13 00:29:00,43.9,16.6,29.75,NNW,337,2.6,2.6,33,0.00,CLR,,0.00,WeatherDisplay:10.37,2013-01-13 05:29:00,
2013-01-13 00:34:00,43.9,16.6,29.76,ESE,112,2.6,2.6,33,0.00,CLR,,0.00,WeatherDisplay:10.37,2013-01-13 05:34:00,
2013-01-13 00:39:00,43.5,16.3,29.77,NNW,337,2.6,2.6,33,0.00,CLR,,0.00,WeatherDisplay:10.37,2013-01-13 05:39:00,
2013-01-13 00:44:00,43.3,16.1,29.76,NW,315,2.6,2.6,33,0.00,CLR,,0.00,WeatherDisplay:10.37,2013-01-13 05:44:00,
2013-01-13 00:49:00,42.8,15.6,29.75,NNW,337,2.6,2.8,33,0.00,CLR,,0.00,WeatherDisplay:10.37,2013-01-13 05:49:00,
2013-01-13 00:54:00,42.8,15.6,29.75,NNW,337,2.8,2.8,33,0.00,CLR,,0.00,WeatherDisplay:10.37,2013-01-13 05:54:00,
2013-01-13 00:59:00,42.1,15.0,29.74,North,0,2.8,2.8,33,0.00,CLR,,0.00,WeatherDisplay:10.37,2013-01-13 05:59:00,
2013-01-13 01:04:00,41.5,14.5,29.75,NNW,337,3.8,3.8,33,0.00,CLR,,0.00,WeatherDisplay:10.37,2013-01-13 06:04:00,
2013-01-13 01:09:00,41.4,14.4,29.75,NNW,337,3.8,3.8,33,0.00,CLR,,0.00,WeatherDisplay:10.37,2013-01-13 06:09:00,
2013-01-13 01:14:00,41.0,14.1,29.74,NNW,337,3.8,3.8,33,0.00,CLR,,0.00,WeatherDisplay:10.37,2013-01-13 06:14:00,
2013-01-13 01:19:00,40.8,13.9,29.73,NNW,337,3.8,3.8,33,0.00,CLR,,0.00,WeatherDisplay:10.37,2013-01-13 06:19:00,
2013-01-13 01:24:00,40.5,13.6,29.73,NNW,337,3.8,3.8,33,0.04,RA,,0.04,WeatherDisplay:10.37,2013-01-13 06:24:00,
2013-01-13 01:29:00,39.9,13.1,29.72,ENE,67,3.8,3.8,33,0.04,RA,,0.04,WeatherDisplay:10.37,2013-01-13 06:29:00,
2013-01-13 01:34:00,39.6,12.8,29.71,ENE,67,4.7,4.7,33,0.04,CLR,,0.04,WeatherDisplay:10.37,2013-01-13 06:34:00,
2013-01-13 01:39:00,39.6,12.8,29.71,North,0,4.7,4.7,33,0.04,CLR,,0.04,WeatherDisplay:10.37,2013-01-13 06:39:00,
2013-01-13 01:44:00,39.2,12.5,29.70,North,0,4.7,4.7,33,0.04,CLR,,0.04,WeatherDisplay:10.37,2013-01-13 06:44:00,
2013-01-13 01:49:00,39.0,12.3,29.65,North,0,4.9,4.9,33,0.04,CLR,,0.08,WeatherDisplay:10.37,2013-01-13 06:49:00,
2013-01-13 01:54:00,38.8,12.1,29.65,North,0,5.9,5.9,33,0.08,RA,,0.08,WeatherDisplay:10.37,2013-01-13 06:54:00,
2013-01-13 01:59:00,38.7,12.0,29.64,North,0,5.9,5.9,33,0.08,RA,,0.08,WeatherDisplay:10.37,2013-01-13 06:59:00,
2013-01-13 02:04:00,38.7,12.0,29.66,East,90,2.3,2.3,33,0.08,CLR,,0.08,WeatherDisplay:10.37,2013-01-13 07:04:00,
2013-01-13 02:09:00,38.8,12.1,29.66,NNW,337,2.6,2.6,33,0.08,CLR,,0.08,WeatherDisplay:10.37,2013-01-13 07:09:00,
2013-01-13 02:14:00,38.8,12.1,29.67,North,0,3.6,3.6,33,0.08,CLR,,0.08,WeatherDisplay:10.37,2013-01-13 07:14:00,
2013-01-13 02:19:00,38.8,12.1,29.67,North,0,3.6,3.6,33,0.08,CLR,,0.08,WeatherDisplay:10.37,2013-01-13 07:19:00,
2013-01-13 02:24:00,38.8,12.1,29.68,NNW,337,3.6,3.6,33,0.04,CLR,,0.08,WeatherDisplay:10.37,2013-01-13 07:24:00,
2013-01-13 02:29:00,38.7,12.0,29.69,NNW,337,3.6,3.6,33,0.04,CLR,,0.08,WeatherDisplay:10.37,2013-01-13 07:29:00,
2013-01-13 02:34:00,38.7,12.0,29.69,NNW,337,3.6,3.6,33,0.04,CLR,,0.08,WeatherDisplay:10.37,2013-01-13 07:34:00,
2013-01-13 02:39:00,38.7,12.0,29.70,NNW,337,3.6,3.6,33,0.04,CLR,,0.08,WeatherDisplay:10.37,2013-01-13 07:39:00,
2013-01-13 02:44:00,38.7,12.0,29.70,NNW,337,3.6,3.6,33,0.04,CLR,,0.08,WeatherDisplay:10.37,2013-01-13 07:44:00,
2013-01-13 02:49:00,38.7,12.0,29.70,NE,45,3.6,3.6,33,0.04,CLR,,0.08,WeatherDisplay:10.37,2013-01-13 07:49:00,
2013-01-13 02:54:00,38.7,11.3,29.70,NE,45,3.6,3.6,32,0.00,CLR,,0.08,WeatherDisplay:10.37,2013-01-13 07:54:00,
2013-01-13 02:59:00,38.7,11.3,29.70,East,90,3.6,3.6,32,0.00,CLR,,0.08,WeatherDisplay:10.37,2013-01-13 07:59:00,
2013-01-13 03:04:00,38.5,11.8,29.71,North,0,1.1,2.8,33,0.00,CLR,,0.08,WeatherDisplay:10.37,2013-01-13 08:04:00,
2013-01-13 03:09:00,38.3,11.0,29.72,North,0,2.8,0.0,32,0.00,CLR,,0.08,WeatherDisplay:10.37,2013-01-13 08:09:00,
2013-01-13 03:14:00,38.1,10.8,29.72,NNW,337,2.8,2.8,32,0.00,CLR,,0.08,WeatherDisplay:10.37,2013-01-13 08:14:00,
2013-01-13 03:19:00,37.9,10.7,29.72,NNW,337,2.8,2.8,32,0.00,CLR,,0.08,WeatherDisplay:10.37,2013-01-13 08:19:00,
2013-01-13 03:24:00,37.6,10.3,29.73,NNW,337,3.6,3.6,32,0.00,CLR,,0.08,WeatherDisplay:10.37,2013-01-13 08:24:00,
2013-01-13 03:29:00,37.6,10.3,29.72,North,0,3.6,3.6,32,0.00,CLR,,0.08,WeatherDisplay:10.37,2013-01-13 08:29:00,
2013-01-13 03:34:00,37.2,10.0,29.72,North,0,3.6,3.6,32,0.00,CLR,,0.08,WeatherDisplay:10.37,2013-01-13 08:34:00,
2013-01-13 03:39:00,37.0,9.9,29.73,North,0,3.6,3.6,32,0.04,RA,,0.12,WeatherDisplay:10.37,2013-01-13 08:39:00,
2013-01-13 03:44:00,37.0,9.9,29.72,NNE,22,3.6,3.6,32,0.04,RA,,0.12,WeatherDisplay:10.37,2013-01-13 08:44:00,
2013-01-13 03:49:00,37.0,9.9,29.72,NNW,337,3.8,3.8,32,0.04,CLR,,0.12,WeatherDisplay:10.37,2013-01-13 08:49:00,
2013-01-13 03:54:00,36.9,9.7,29.73,NNW,337,3.8,3.8,32,0.04,CLR,,0.12,WeatherDisplay:10.37,2013-01-13 08:54:00,
2013-01-13 03:59:00,36.9,9.7,29.73,NNW,337,3.8,3.8,32,0.04,CLR,,0.12,WeatherDisplay:10.37,2013-01-13 08:59:00,
2013-01-13 04:04:00,36.9,9.7,29.67,NNW,337,4.0,4.0,32,0.04,CLR,,0.12,WeatherDisplay:10.37,2013-01-13 09:04:00,
2013-01-13 04:09:00,36.7,9.5,29.67,North,0,4.0,4.0,32,0.04,CLR,,0.12,WeatherDisplay:10.37,2013-01-13 09:09:00,
2013-01-13 04:14:00,36.7,9.5,29.67,North,0,4.0,4.0,32,0.04,CLR,,0.12,WeatherDisplay:10.37,2013-01-13 09:14:00,
2013-01-13 04:19:00,36.7,9.5,29.68,North,0,4.0,4.0,32,0.04,CLR,,0.12,WeatherDisplay:10.37,2013-01-13 09:19:00,
2013-01-13 04:24:00,36.9,9.7,29.68,North,0,4.7,4.7,32,0.04,CLR,,0.12,WeatherDisplay:10.37,2013-01-13 09:24:00,
2013-01-13 04:29:00,36.7,9.5,29.67,NNE,22,4.7,5.5,32,0.04,CLR,,0.12,WeatherDisplay:10.37,2013-01-13 09:29:00,
2013-01-13 04:34:00,36.7,9.5,29.68,NNE,22,9.7,9.7,32,0.04,CLR,,0.12,WeatherDisplay:10.37,2013-01-13 09:34:00,
2013-01-13 04:39:00,36.5,9.4,29.69,NNE,22,9.7,9.7,32,0.00,CLR,,0.12,WeatherDisplay:10.37,2013-01-13 09:39:00,
2013-01-13 04:44:00,36.5,9.4,29.68,NNE,22,9.7,9.7,32,0.00,CLR,,0.12,WeatherDisplay:10.37,2013-01-13 09:44:00,
2013-01-13 04:49:00,36.5,9.4,29.69,NNE,22,9.7,9.7,32,0.00,CLR,,0.12,WeatherDisplay:10.37,2013-01-13 09:49:00,
2013-01-13 04:54:00,36.5,9.4,29.69,NNW,337,9.7,9.7,32,0.04,RA,,0.16,WeatherDisplay:10.37,2013-01-13 09:54:00,
2013-01-13 04:59:00,36.5,8.7,29.70,NNW,337,9.7,9.7,31,0.04,RA,,0.16,WeatherDisplay:10.37,2013-01-13 09:59:00,
2013-01-13 05:04:00,36.3,9.2,29.70,NNE,22,3.6,3.6,32,0.04,CLR,,0.16,WeatherDisplay:10.37,2013-01-13 10:04:00,
2013-01-13 05:09:00,36.3,8.5,29.69,NNE,22,3.6,3.6,31,0.04,CLR,,0.16,WeatherDisplay:10.37,2013-01-13 10:09:00,
2013-01-13 05:14:00,36.3,8.5,29.70,NNE,22,3.6,3.6,31,0.04,CLR,,0.16,WeatherDisplay:10.37,2013-01-13 10:14:00,
2013-01-13 05:19:00,36.3,8.5,29.71,NNE,22,3.6,3.6,31,0.04,CLR,,0.16,WeatherDisplay:10.37,2013-01-13 10:19:00,
2013-01-13 05:25:00,36.3,8.5,29.70,NNE,22,2.0,4.0,31,0.00,CLR,CLR,0.16,WeatherDisplay:10.37,2013-01-13 10:25:00,
2013-01-13 05:30:00,36.3,8.5,29.70,NNE,22,3.0,4.0,31,0.00,CLR,CLR,0.16,WeatherDisplay:10.37,2013-01-13 10:30:00,
2013-01-13 05:35:00,36.1,8.4,29.71,NNE,17,3.0,5.0,31,0.00,CLR,CLR,0.16,WeatherDisplay:10.37,2013-01-13 10:35:00,
2013-01-13 05:40:00,36.1,8.4,29.72,North,353,3.0,5.0,31,0.00,CLR,CLR,0.16,WeatherDisplay:10.37,2013-01-13 10:40:00,
2013-01-13 05:45:00,36.0,8.2,29.67,NNW,335,3.0,5.0,31,0.00,CLR,CLR,0.16,WeatherDisplay:10.37,2013-01-13 10:45:00,
2013-01-13 05:50:00,36.0,9.6,29.67,NW,323,3.0,5.0,33,0.00,CLR,CLR,0.16,WeatherDisplay:10.37,2013-01-13 10:50:00,
2013-01-13 05:55:00,36.0,9.6,29.66,NW,326,3.0,5.0,33,0.00,CLR,CLR,0.16,WeatherDisplay:10.37,2013-01-13 10:55:00,
2013-01-13 06:00:00,36.0,9.6,29.67,NNW,337,3.0,5.0,33,0.00,CLR,CLR,0.16,WeatherDisplay:10.37,2013-01-13 11:00:00,
2013-01-13 06:05:00,36.0,9.6,29.69,NNW,337,2.0,5.0,33,0.00,CLR,CLR,0.16,WeatherDisplay:10.37,2013-01-13 11:05:00,
2013-01-13 06:10:00,35.8,9.4,29.69,NNW,337,2.0,5.0,33,0.00,CLR,CLR,0.16,WeatherDisplay:10.37,2013-01-13 11:10:00,
2013-01-13 06:15:00,35.8,9.4,29.69,North,6,5.0,5.0,33,0.00,CLR,CLR,0.16,WeatherDisplay:10.37,2013-01-13 11:15:00,
2013-01-13 06:20:00,36.0,9.6,29.69,North,2,3.0,5.0,33,0.04,RA,RA,0.20,WeatherDisplay:10.37,2013-01-13 11:20:00,
2013-01-13 06:25:00,35.8,9.4,29.69,North,349,3.0,5.0,33,0.00,RA,RA,0.20,WeatherDisplay:10.37,2013-01-13 11:25:00,
2013-01-13 06:30:00,35.8,9.4,29.69,North,0,3.0,5.0,33,0.00,,,0.20,WeatherDisplay:10.37,2013-01-13 11:30:00,
2013-01-13 06:35:00,35.6,9.3,29.69,North,0,3.0,5.0,33,0.00,CLR,CLR,0.20,WeatherDisplay:10.37,2013-01-13 11:35:00,
2013-01-13 06:40:00,35.6,9.3,29.69,North,7,3.0,5.0,33,0.00,CLR,CLR,0.20,WeatherDisplay:10.37,2013-01-13 11:40:00,
2013-01-13 06:45:00,35.6,9.3,29.68,North,6,3.0,5.0,33,0.00,CLR,CLR,0.20,WeatherDisplay:10.37,2013-01-13 11:45:00,
2013-01-13 06:50:00,35.6,9.3,29.69,North,354,3.0,5.0,33,0.00,CLR,CLR,0.20,WeatherDisplay:10.37,2013-01-13 11:50:00,
2013-01-13 06:55:00,35.6,9.3,29.69,NNW,343,1.0,5.0,33,0.00,CLR,CLR,0.20,WeatherDisplay:10.37,2013-01-13 11:55:00,
2013-01-13 07:00:00,35.6,9.3,29.69,NNE,22,5.1,5.1,33,0.04,CLR,,0.20,WeatherDisplay:10.37,2013-01-13 12:00:00,
2013-01-13 07:05:00,35.4,9.1,29.67,NNW,337,5.9,5.9,33,0.04,CLR,,0.20,WeatherDisplay:10.37,2013-01-13 12:05:00,
2013-01-13 07:10:00,35.6,9.3,29.66,NNW,337,5.9,5.9,33,0.04,CLR,,0.20,WeatherDisplay:10.37,2013-01-13 12:10:00,
2013-01-13 07:15:00,35.6,9.3,29.68,NNW,337,5.9,5.9,33,0.04,CLR,,0.20,WeatherDisplay:10.37,2013-01-13 12:15:00,
2013-01-13 07:20:00,35.8,9.4,29.71,NNW,337,5.9,5.9,33,0.00,CLR,,0.20,WeatherDisplay:10.37,2013-01-13 12:20:00,
2013-01-13 07:25:00,35.8,9.4,29.71,NW,315,5.9,5.9,33,0.00,CLR,,0.20,WeatherDisplay:10.37,2013-01-13 12:25:00,
2013-01-13 07:30:00,35.8,9.4,29.71,NNE,22,5.9,5.9,33,0.00,CLR,,0.20,WeatherDisplay:10.37,2013-01-13 12:30:00,
2013-01-13 07:35:00,36.0,8.9,29.69,ESE,112,5.9,5.9,32,0.00,CLR,,0.20,WeatherDisplay:10.37,2013-01-13 12:35:00,
2013-01-13 07:40:00,36.0,9.6,29.71,NW,315,5.9,5.9,33,0.00,CLR,,0.20,WeatherDisplay:10.37,2013-01-13 12:40:00,
2013-01-13 07:45:00,36.0,8.9,29.71,NW,315,5.9,5.9,32,0.00,CLR,,0.20,WeatherDisplay:10.37,2013-01-13 12:45:00,
2013-01-13 07:50:00,36.0,9.6,29.71,ENE,67,5.9,5.9,33,0.00,CLR,,0.20,WeatherDisplay:10.37,2013-01-13 12:50:00,
2013-01-13 07:55:00,36.1,9.8,29.71,NE,45,5.9,5.9,33,0.00,CLR,,0.20,WeatherDisplay:10.37,2013-01-13 12:55:00,
2013-01-13 08:00:00,36.3,9.2,29.69,ESE,112,5.9,5.9,32,0.00,CLR,,0.20,WeatherDisplay:10.37,2013-01-13 13:00:00,
2013-01-13 08:05:00,36.3,9.9,29.69,East,90,2.8,2.8,33,0.00,CLR,,0.20,WeatherDisplay:10.37,2013-01-13 13:05:00,
2013-01-13 08:10:00,36.5,9.4,29.69,East,90,2.8,0.0,32,0.00,CLR,,0.20,WeatherDisplay:10.37,2013-01-13 13:10:00,
2013-01-13 08:15:00,36.5,9.4,29.69,ESE,112,2.8,0.0,32,0.00,CLR,,0.20,WeatherDisplay:10.37,2013-01-13 13:15:00,
2013-01-13 08:20:00,36.9,9.7,29.71,SE,135,2.8,0.0,32,0.00,CLR,,0.20,WeatherDisplay:10.37,2013-01-13 13:20:00,
2013-01-13 08:25:00,37.0,9.9,29.72,WSW,247,2.8,2.8,32,0.00,CLR,,0.20,WeatherDisplay:10.37,2013-01-13 13:25:00,
2013-01-13 08:30:00,36.7,9.5,29.72,WSW,247,2.8,2.8,32,0.00,CLR,,0.20,WeatherDisplay:10.37,2013-01-13 13:30:00,
2013-01-13 08:35:00,36.9,9.7,29.72,NE,45,2.8,0.0,32,0.00,CLR,,0.20,WeatherDisplay:10.37,2013-01-13 13:35:00,
2013-01-13 08:40:00,36.9,9.7,29.74,SSE,157,2.8,0.0,32,0.00,CLR,,0.20,WeatherDisplay:10.37,2013-01-13 13:40:00,
2013-01-13 08:45:00,37.0,9.9,29.75,NW,315,2.8,0.0,32,0.00,CLR,,0.20,WeatherDisplay:10.37,2013-01-13 13:45:00,
2013-01-13 08:50:00,36.9,9.7,29.75,SW,225,2.8,0.0,32,0.00,CLR,,0.20,WeatherDisplay:10.37,2013-01-13 13:50:00,
2013-01-13 08:55:00,37.2,10.0,29.75,South,180,2.8,0.0,32,0.00,CLR,,0.20,WeatherDisplay:10.37,2013-01-13 13:55:00,
2013-01-13 09:00:00,37.2,10.0,29.75,SW,225,2.8,0.0,32,0.00,CLR,,0.20,WeatherDisplay:10.37,2013-01-13 14:00:00,
2013-01-13 09:05:00,37.2,10.7,29.74,SW,225,0.3,0.3,33,0.00,CLR,,0.20,WeatherDisplay:10.37,2013-01-13 14:05:00,
2013-01-13 09:10:00,37.4,10.2,29.73,SW,225,0.3,0.0,32,0.00,CLR,,0.20,WeatherDisplay:10.37,2013-01-13 14:10:00,
2013-01-13 09:15:00,37.2,10.7,29.73,SW,225,2.3,2.3,33,0.00,CLR,,0.20,WeatherDisplay:10.37,2013-01-13 14:15:00,
2013-01-13 09:20:00,37.2,10.7,29.73,WSW,247,2.3,2.3,33,0.00,CLR,,0.20,WeatherDisplay:10.37,2013-01-13 14:20:00,
2013-01-13 09:25:00,37.2,10.7,29.73,WSW,247,2.3,0.0,33,0.00,CLR,,0.20,WeatherDisplay:10.37,2013-01-13 14:25:00,
2013-01-13 09:30:00,37.2,11.4,29.73,SW,225,2.3,0.0,34,0.00,CLR,,0.20,WeatherDisplay:10.37,2013-01-13 14:30:00,
2013-01-13 09:35:00,37.4,11.5,29.73,SW,225,2.3,0.0,34,0.00,CLR,,0.20,WeatherDisplay:10.37,2013-01-13 14:35:00,
2013-01-13 09:41:00,37.4,12.2,29.73,West,270,2.3,0.0,35,0.00,CLR,,0.20,WeatherDisplay:10.37,2013-01-13 14:41:00,
2013-01-13 09:46:00,37.6,12.4,29.74,SSW,202,2.3,0.0,35,0.00,CLR,,0.20,WeatherDisplay:10.37,2013-01-13 14:46:00,
2013-01-13 09:51:00,37.6,12.4,29.73,SSW,202,2.3,0.0,35,0.00,CLR,,0.20,WeatherDisplay:10.37,2013-01-13 14:51:00,
2013-01-13 09:56:00,82.0,51.7,29.73,SSW,202,2.3,0.0,35,0.00,CLR,,0.20,WeatherDisplay:10.37,2013-01-13 14:56:00,
2013-01-13 10:01:00,37.8,12.5,29.72,SSW,202,2.3,0.0,35,0.00,CLR,,0.20,WeatherDisplay:10.37,2013-01-13 15:01:00,
2013-01-13 10:06:00,37.8,12.5,29.71,WNW,292,1.1,1.1,35,0.00,CLR,,0.20,WeatherDisplay:10.37,2013-01-13 15:06:00,
2013-01-13 10:11:00,37.8,12.5,29.71,West,270,1.1,1.1,35,0.00,CLR,,0.20,WeatherDisplay:10.37,2013-01-13 15:11:00,
2013-01-13 10:16:00,37.8,11.2,29.76,West,270,1.1,1.1,33,0.00,CLR,,0.20,WeatherDisplay:10.37,2013-01-13 15:16:00,
2013-01-13 10:21:00,37.8,11.2,29.74,SW,225,1.1,0.0,33,0.00,CLR,,0.20,WeatherDisplay:10.37,2013-01-13 15:21:00,
2013-01-13 10:26:00,37.9,11.3,29.76,WSW,247,2.3,2.3,33,0.00,CLR,,0.20,WeatherDisplay:10.37,2013-01-13 15:26:00,
2013-01-13 10:31:00,37.9,11.3,29.77,SW,225,2.6,2.6,33,0.00,CLR,,0.20,WeatherDisplay:10.37,2013-01-13 15:31:00,
2013-01-13 10:36:00,38.1,11.5,29.77,WNW,292,2.8,0.0,33,0.00,CLR,,0.20,WeatherDisplay:10.37,2013-01-13 15:36:00,
2013-01-13 10:41:00,37.9,11.3,29.79,WNW,292,2.8,2.8,33,0.00,CLR,,0.20,WeatherDisplay:10.37,2013-01-13 15:41:00,
2013-01-13 10:46:00,37.9,11.3,29.79,NW,315,3.5,3.5,33,0.00,CLR,,0.20,WeatherDisplay:10.37,2013-01-13 15:46:00,
2013-01-13 10:51:00,37.9,12.7,29.74,WNW,292,4.6,4.6,35,0.00,CLR,,0.20,WeatherDisplay:10.37,2013-01-13 15:51:00,
2013-01-13 10:56:00,37.9,11.3,29.80,WNW,292,4.6,4.6,33,0.00,CLR,,0.20,WeatherDisplay:10.37,2013-01-13 15:56:00,
2013-01-13 11:01:00,37.8,11.2,29.80,NW,315,4.6,4.6,33,0.00,CLR,,0.20,WeatherDisplay:10.37,2013-01-13 16:01:00,
2013-01-13 11:06:00,37.6,11.0,29.79,NW,315,3.5,3.5,33,0.00,CLR,,0.20,WeatherDisplay:10.37,2013-01-13 16:06:00,
2013-01-13 11:11:00,37.8,11.2,29.78,West,270,3.5,3.5,33,0.00,CLR,,0.20,WeatherDisplay:10.37,2013-01-13 16:11:00,
2013-01-13 11:16:00,37.8,11.2,29.78,WNW,292,3.5,3.5,33,0.00,CLR,,0.20,WeatherDisplay:10.37,2013-01-13 16:16:00,
2013-01-13 11:21:00,37.8,11.2,29.79,West,270,3.5,3.5,33,0.00,CLR,,0.20,WeatherDisplay:10.37,2013-01-13 16:21:00,
2013-01-13 11:26:00,37.8,11.2,29.78,WNW,292,3.5,3.5,33,0.00,CLR,,0.20,WeatherDisplay:10.37,2013-01-13 16:26:00,
2013-01-13 11:31:00,37.8,11.2,29.79,West,270,3.5,3.5,33,0.00,CLR,,0.20,WeatherDisplay:10.37,2013-01-13 16:31:00,
2013-01-13 11:36:00,37.6,11.0,29.80,WSW,247,3.5,3.5,33,0.00,CLR,,0.20,WeatherDisplay:10.37,2013-01-13 16:36:00,
2013-01-13 11:41:00,37.6,11.0,29.79,WSW,247,3.5,3.5,33,0.00,CLR,,0.20,WeatherDisplay:10.37,2013-01-13 16:41:00,
2013-01-13 11:46:00,37.6,11.0,29.79,WSW,247,3.5,3.5,33,0.00,CLR,,0.20,WeatherDisplay:10.37,2013-01-13 16:46:00,
2013-01-13 11:51:00,37.6,11.0,29.77,WNW,292,3.5,3.5,33,0.00,CLR,,0.20,WeatherDisplay:10.37,2013-01-13 16:51:00,
2013-01-13 11:56:00,37.6,11.0,29.74,WSW,247,3.5,3.5,33,0.00,CLR,,0.20,WeatherDisplay:10.37,2013-01-13 16:56:00,
2013-01-13 12:01:00,37.6,11.0,29.74,NNW,337,3.5,3.5,33,0.00,CLR,,0.20,WeatherDisplay:10.37,2013-01-13 17:01:00,
2013-01-13 12:06:00,37.6,11.0,29.75,WNW,292,2.4,2.4,33,0.00,CLR,,0.20,WeatherDisplay:10.37,2013-01-13 17:06:00,
2013-01-13 12:11:00,37.6,11.0,29.76,NW,315,2.6,2.6,33,0.00,CLR,,0.20,WeatherDisplay:10.37,2013-01-13 17:11:00,
2013-01-13 12:16:00,37.4,10.9,29.77,NNW,337,4.0,4.0,33,0.00,CLR,,0.20,WeatherDisplay:10.37,2013-01-13 17:16:00,
2013-01-13 12:21:00,37.4,10.9,29.77,NNW,337,4.0,4.0,33,0.00,CLR,,0.20,WeatherDisplay:10.37,2013-01-13 17:21:00,
2013-01-13 12:26:00,37.6,11.0,29.78,WNW,292,4.6,4.6,33,0.00,CLR,,0.20,WeatherDisplay:10.37,2013-01-13 17:26:00,
2013-01-13 12:31:00,37.4,11.5,29.77,WNW,292,4.6,4.6,34,0.00,CLR,,0.20,WeatherDisplay:10.37,2013-01-13 17:31:00,
2013-01-13 12:36:00,37.4,11.5,29.76,North,0,4.6,4.6,34,0.00,CLR,,0.20,WeatherDisplay:10.37,2013-01-13 17:36:00,
2013-01-13 12:41:00,37.2,12.0,29.75,North,0,4.6,4.6,35,0.00,CLR,,0.20,WeatherDisplay:10.37,2013-01-13 17:41:00,
2013-01-13 12:46:00,37.2,12.0,29.72,North,0,4.6,4.6,35,0.00,CLR,,0.20,WeatherDisplay:10.37,2013-01-13 17:46:00,
2013-01-13 12:51:00,37.0,11.9,29.70,NE,45,6.9,6.9,35,0.00,CLR,,0.20,WeatherDisplay:10.37,2013-01-13 17:51:00,
2013-01-13 12:56:00,37.2,12.0,29.72,NE,45,6.9,6.9,35,0.00,CLR,,0.20,WeatherDisplay:10.37,2013-01-13 17:56:00,
2013-01-13 13:01:00,37.6,13.0,29.77,WSW,247,6.9,6.9,36,0.00,CLR,,0.20,WeatherDisplay:10.37,2013-01-13 18:01:00,
2013-01-13 13:06:00,37.8,13.2,29.81,WSW,247,3.5,3.6,36,0.00,CLR,,0.20,WeatherDisplay:10.37,2013-01-13 18:06:00,
2013-01-13 13:11:00,37.8,13.2,29.81,WSW,247,3.6,3.6,36,0.00,CLR,,0.20,WeatherDisplay:10.37,2013-01-13 18:11:00,
2013-01-13 13:16:00,37.4,12.8,29.82,WNW,292,3.6,3.6,36,0.00,CLR,,0.20,WeatherDisplay:10.37,2013-01-13 18:16:00,
2013-01-13 13:21:00,37.2,13.9,29.75,WNW,292,4.9,4.9,38,0.00,CLR,,0.20,WeatherDisplay:10.37,2013-01-13 18:21:00,
2013-01-13 13:26:00,37.2,13.9,29.75,NNW,337,4.9,4.9,38,0.00,CLR,,0.20,WeatherDisplay:10.37,2013-01-13 18:26:00,
2013-01-13 13:31:00,37.2,13.9,29.75,NNW,337,4.9,4.9,38,0.00,CLR,,0.20,WeatherDisplay:10.37,2013-01-13 18:31:00,
2013-01-13 13:36:00,37.2,13.9,29.75,WSW,247,4.9,4.9,38,0.00,CLR,,0.20,WeatherDisplay:10.37,2013-01-13 18:36:00,
2013-01-13 13:41:00,37.0,13.7,29.75,WNW,292,4.9,4.9,38,0.00,CLR,,0.20,WeatherDisplay:10.37,2013-01-13 18:41:00,
2013-01-13 13:46:00,37.0,13.7,29.75,WNW,292,4.9,4.9,38,0.00,CLR,,0.20,WeatherDisplay:10.37,2013-01-13 18:46:00,
2013-01-13 13:51:00,37.0,13.7,29.75,NNW,337,4.9,4.9,38,0.00,CLR,,0.20,WeatherDisplay:10.37,2013-01-13 18:51:00,
2013-01-13 13:56:00,36.9,13.6,29.75,NNW,337,4.9,4.9,38,0.00,CLR,,0.20,WeatherDisplay:10.37,2013-01-13 18:56:00,
2013-01-13 14:01:00,36.9,13.6,29.75,NW,315,4.9,4.9,38,0.00,CLR,,0.20,WeatherDisplay:10.37,2013-01-13 19:01:00,
2013-01-13 14:06:00,36.9,13.6,29.75,West,270,2.3,2.3,38,0.00,CLR,,0.20,WeatherDisplay:10.37,2013-01-13 19:06:00,
2013-01-13 14:11:00,37.0,13.7,29.75,WNW,292,2.3,2.3,38,0.00,CLR,,0.20,WeatherDisplay:10.37,2013-01-13 19:11:00,
2013-01-13 14:16:00,37.4,14.1,29.75,WNW,292,2.8,2.8,38,0.00,CLR,,0.20,WeatherDisplay:10.37,2013-01-13 19:16:00,
2013-01-13 14:21:00,37.4,14.1,29.74,WNW,292,2.8,2.8,38,0.00,CLR,,0.20,WeatherDisplay:10.37,2013-01-13 19:21:00,
2013-01-13 14:26:00,37.6,13.6,29.75,NNW,337,2.8,2.8,37,0.00,CLR,,0.20,WeatherDisplay:10.37,2013-01-13 19:26:00,
2013-01-13 14:31:00,37.4,13.5,29.75,WNW,292,2.8,2.8,37,0.00,CLR,,0.20,WeatherDisplay:10.37,2013-01-13 19:31:00,
2013-01-13 14:36:00,37.4,13.5,29.72,NNE,22,2.8,2.8,37,0.00,CLR,,0.20,WeatherDisplay:10.37,2013-01-13 19:36:00,
2013-01-13 14:41:00,37.0,13.1,29.74,North,0,3.5,3.5,37,0.00,CLR,,0.20,WeatherDisplay:10.37,2013-01-13 19:41:00,
2013-01-13 14:46:00,36.9,13.0,29.74,NNW,337,3.5,3.5,37,0.00,CLR,,0.20,WeatherDisplay:10.37,2013-01-13 19:46:00,
2013-01-13 14:51:00,36.9,13.0,29.74,NNW,337,3.5,3.5,37,0.00,CLR,,0.20,WeatherDisplay:10.37,2013-01-13 19:51:00,
2013-01-13 14:56:00,36.9,13.0,29.75,NW,315,3.5,3.5,37,0.00,CLR,,0.20,WeatherDisplay:10.37,2013-01-13 19:56:00,
2013-01-13 15:01:00,36.9,13.0,29.75,West,270,3.5,3.5,37,0.00,CLR,,0.20,WeatherDisplay:10.37,2013-01-13 20:01:00,
2013-01-13 15:06:00,37.0,13.1,29.77,NNW,337,1.3,1.3,37,0.00,CLR,,0.20,WeatherDisplay:10.37,2013-01-13 20:06:00,
2013-01-13 15:11:00,36.9,12.4,29.77,West,270,3.6,3.6,36,0.00,CLR,,0.20,WeatherDisplay:10.37,2013-01-13 20:11:00,
2013-01-13 15:16:00,36.9,12.4,29.77,NNW,337,3.6,3.6,36,0.00,CLR,,0.20,WeatherDisplay:10.37,2013-01-13 20:16:00,
2013-01-13 15:21:00,36.7,12.2,29.75,NW,315,3.6,3.6,36,0.00,CLR,,0.20,WeatherDisplay:10.37,2013-01-13 20:21:00,
2013-01-13 15:26:00,36.7,11.6,29.75,NNE,22,3.6,3.6,35,0.00,CLR,,0.20,WeatherDisplay:10.37,2013-01-13 20:26:00,
2013-01-13 15:31:00,36.5,11.4,29.77,WNW,292,3.6,3.6,35,0.00,CLR,,0.20,WeatherDisplay:10.37,2013-01-13 20:31:00,
2013-01-13 15:36:00,36.5,11.4,29.77,NW,315,3.6,3.6,35,0.00,CLR,,0.20,WeatherDisplay:10.37,2013-01-13 20:36:00,
2013-01-13 15:41:00,36.3,9.9,29.83,NW,315,3.6,3.6,33,0.00,CLR,,0.20,WeatherDisplay:10.37,2013-01-13 20:41:00,
2013-01-13 15:46:00,36.3,9.9,29.82,NW,315,3.6,3.6,33,0.00,CLR,,0.20,WeatherDisplay:10.37,2013-01-13 20:46:00,
2013-01-13 15:51:00,36.1,9.8,29.81,West,270,3.6,3.6,33,0.00,CLR,,0.20,WeatherDisplay:10.37,2013-01-13 20:51:00,
2013-01-13 15:56:00,36.1,9.8,29.82,West,270,3.6,3.6,33,0.00,CLR,,0.20,WeatherDisplay:10.37,2013-01-13 20:56:00,
2013-01-13 16:01:00,36.1,9.8,29.82,NE,45,3.6,3.6,33,0.00,CLR,,0.20,WeatherDisplay:10.37,2013-01-13 21:01:00,
2013-01-13 16:06:00,35.8,9.4,29.83,NNW,337,3.6,3.6,33,0.00,CLR,,0.20,WeatherDisplay:10.37,2013-01-13 21:06:00,
2013-01-13 16:11:00,35.8,10.8,29.77,NW,315,3.6,3.6,35,0.00,CLR,,0.20,WeatherDisplay:10.37,2013-01-13 21:11:00,
2013-01-13 16:16:00,35.8,9.4,29.84,NW,315,3.6,3.6,33,0.00,CLR,,0.20,WeatherDisplay:10.37,2013-01-13 21:16:00,
2013-01-13 16:21:00,35.8,10.8,29.78,NW,315,3.6,3.6,35,0.00,CLR,,0.20,WeatherDisplay:10.37,2013-01-13 21:21:00,
2013-01-13 16:26:00,35.8,10.8,29.77,NW,315,3.6,3.6,35,0.00,CLR,,0.20,WeatherDisplay:10.37,2013-01-13 21:26:00,
2013-01-13 16:31:00,35.8,9.4,29.83,West,270,3.6,3.6,33,0.00,CLR,,0.20,WeatherDisplay:10.37,2013-01-13 21:31:00,
2013-01-13 16:36:00,35.8,9.4,29.82,West,270,3.6,3.6,33,0.00,CLR,,0.20,WeatherDisplay:10.37,2013-01-13 21:36:00,
2013-01-13 16:41:00,35.8,9.4,29.82,WNW,292,3.6,3.6,33,0.00,CLR,,0.20,WeatherDisplay:10.37,2013-01-13 21:41:00,
2013-01-13 16:46:00,35.8,9.4,29.83,NNW,337,3.8,3.8,33,0.00,CLR,,0.20,WeatherDisplay:10.37,2013-01-13 21:46:00,
2013-01-13 16:51:00,35.6,9.3,29.83,WNW,292,3.8,3.8,33,0.00,CLR,,0.20,WeatherDisplay:10.37,2013-01-13 21:51:00,
2013-01-13 16:56:00,35.4,9.1,29.82,WNW,292,3.8,3.8,33,0.04,RA,,0.24,WeatherDisplay:10.37,2013-01-13 21:56:00,
2013-01-13 17:01:00,35.4,9.1,29.82,WSW,247,3.8,3.8,33,0.04,RA,,0.24,WeatherDisplay:10.37,2013-01-13 22:01:00,
2013-01-13 17:06:00,35.2,9.0,29.82,WNW,292,1.1,1.1,33,0.04,,,0.24,WeatherDisplay:10.37,2013-01-13 22:06:00,
2013-01-13 17:11:00,35.2,9.0,29.81,North,0,1.1,0.0,33,0.04,CLR,,0.24,WeatherDisplay:10.37,2013-01-13 22:11:00,
2013-01-13 17:16:00,35.2,8.3,29.81,West,270,1.1,1.1,32,0.04,CLR,,0.24,WeatherDisplay:10.37,2013-01-13 22:16:00,
2013-01-13 17:21:00,35.4,8.4,29.80,SW,225,1.1,0.0,32,0.04,CLR,,0.24,WeatherDisplay:10.37,2013-01-13 22:21:00,
2013-01-13 17:26:00,35.4,8.4,29.80,SW,225,1.1,0.0,32,0.04,CLR,,0.24,WeatherDisplay:10.37,2013-01-13 22:26:00,
2013-01-13 17:31:00,35.2,8.3,29.77,NNE,22,1.7,1.7,32,0.04,CLR,,0.24,WeatherDisplay:10.37,2013-01-13 22:31:00,
2013-01-13 17:36:00,35.2,8.3,29.78,NE,45,2.6,0.0,32,0.04,CLR,,0.24,WeatherDisplay:10.37,2013-01-13 22:36:00,
2013-01-13 17:41:00,35.6,8.6,29.79,South,180,2.6,0.0,32,0.04,CLR,,0.24,WeatherDisplay:10.37,2013-01-13 22:41:00,
2013-01-13 17:46:00,35.8,8.8,29.81,South,180,2.6,0.0,32,0.04,CLR,,0.24,WeatherDisplay:10.37,2013-01-13 22:46:00,
2013-01-13 17:51:00,35.6,8.6,29.80,South,180,2.6,2.6,32,0.04,CLR,,0.24,WeatherDisplay:10.37,2013-01-13 22:51:00,
2013-01-13 17:56:00,35.4,8.4,29.80,South,180,2.6,2.6,32,0.00,CLR,,0.24,WeatherDisplay:10.37,2013-01-13 22:56:00,
2013-01-13 18:01:00,35.2,8.3,29.80,SSW,202,2.6,2.6,32,0.00,CLR,,0.24,WeatherDisplay:10.37,2013-01-13 23:01:00,
2013-01-13 18:06:00,35.2,8.3,29.81,SSW,202,2.4,2.4,32,0.00,CLR,,0.24,WeatherDisplay:10.37,2013-01-13 23:06:00,
2013-01-13 18:11:00,35.2,8.3,29.79,West,270,2.4,2.4,32,0.00,CLR,,0.24,WeatherDisplay:10.37,2013-01-13 23:11:00,
2013-01-13 18:16:00,35.1,8.1,29.77,West,270,2.8,2.8,32,0.00,CLR,,0.24,WeatherDisplay:10.37,2013-01-13 23:16:00,
2013-01-13 18:21:00,35.1,8.1,29.78,SW,225,2.8,2.8,32,0.00,CLR,,0.24,WeatherDisplay:10.37,2013-01-13 23:21:00,
2013-01-13 18:26:00,35.1,8.1,29.77,SW,225,2.8,2.8,32,0.00,CLR,,0.24,WeatherDisplay:10.37,2013-01-13 23:26:00,
2013-01-13 18:31:00,35.1,8.1,29.79,WNW,292,2.8,2.8,32,0.00,CLR,,0.24,WeatherDisplay:10.37,2013-01-13 23:31:00,
2013-01-13 18:36:00,34.9,8.0,29.80,West,270,2.8,2.8,32,0.00,CLR,,0.24,WeatherDisplay:10.37,2013-01-13 23:36:00,
2013-01-13 18:41:00,34.9,8.0,29.80,WSW,247,2.8,2.8,32,0.00,CLR,,0.24,WeatherDisplay:10.37,2013-01-13 23:41:00,
2013-01-13 18:46:00,34.7,7.8,29.79,SSW,202,2.8,2.8,32,0.00,CLR,,0.24,WeatherDisplay:10.37,2013-01-13 23:46:00,
2013-01-13 18:51:00,34.5,7.6,29.80,SSW,202,2.8,2.8,32,0.00,CLR,,0.24,WeatherDisplay:10.37,2013-01-13 23:51:00,
2013-01-13 18:56:00,34.5,7.6,29.79,SSW,202,2.8,2.8,32,0.00,CLR,,0.24,WeatherDisplay:10.37,2013-01-13 23:56:00,
2013-01-13 19:01:00,34.2,7.3,29.78,WNW,292,2.8,2.8,32,0.00,CLR,,0.24,WeatherDisplay:10.37,2013-01-14 00:01:00,
2013-01-13 19:06:00,34.0,6.5,29.78,WSW,247,2.4,2.4,31,0.00,CLR,,0.24,WeatherDisplay:10.37,2013-01-14 00:06:00,
2013-01-13 19:11:00,34.0,6.5,29.77,WSW,247,2.4,2.4,31,0.00,CLR,,0.24,WeatherDisplay:10.37,2013-01-14 00:11:00,
2013-01-13 19:16:00,33.8,6.3,29.79,West,270,2.4,2.4,31,0.00,CLR,,0.24,WeatherDisplay:10.37,2013-01-14 00:16:00,
2013-01-13 19:21:00,33.8,6.3,29.79,West,270,2.6,2.6,31,0.00,CLR,,0.24,WeatherDisplay:10.37,2013-01-14 00:21:00,
2013-01-13 19:26:00,33.4,6.0,29.80,SW,225,2.6,2.6,31,0.00,CLR,,0.24,WeatherDisplay:10.37,2013-01-14 00:26:00,
2013-01-13 19:31:00,33.3,5.8,29.81,SW,225,2.8,2.8,31,0.00,CLR,,0.24,WeatherDisplay:10.37,2013-01-14 00:31:00,
2013-01-13 19:36:00,33.3,6.5,29.82,West,270,2.8,2.8,32,0.00,CLR,,0.24,WeatherDisplay:10.37,2013-01-14 00:36:00,
2013-01-13 19:41:00,32.9,5.5,29.81,West,270,2.8,2.8,31,0.00,CLR,,0.24,WeatherDisplay:10.37,2013-01-14 00:41:00,
2013-01-13 19:46:00,32.9,5.5,29.81,West,270,2.8,2.8,31,0.00,CLR,,0.24,WeatherDisplay:10.37,2013-01-14 00:46:00,
2013-01-13 19:51:00,32.9,5.5,29.82,SW,225,2.8,2.8,31,0.00,CLR,,0.24,WeatherDisplay:10.37,2013-01-14 00:51:00,
2013-01-13 19:56:00,32.7,5.4,29.82,WSW,247,2.8,2.8,31,0.00,CLR,,0.24,WeatherDisplay:10.37,2013-01-14 00:56:00,
2013-01-13 20:01:00,32.5,5.2,29.82,West,270,2.8,2.8,31,0.00,CLR,,0.24,WeatherDisplay:10.37,2013-01-14 01:01:00,
2013-01-13 20:06:00,32.5,5.2,29.83,West,270,3.8,3.8,31,0.00,CLR,,0.24,WeatherDisplay:10.37,2013-01-14 01:06:00,
2013-01-13 20:11:00,32.5,5.2,29.83,West,270,3.8,3.8,31,0.00,CLR,,0.24,WeatherDisplay:10.37,2013-01-14 01:11:00,
2013-01-13 20:16:00,32.4,5.0,29.83,WNW,292,3.8,3.8,31,0.00,CLR,,0.24,WeatherDisplay:10.37,2013-01-14 01:16:00,
2013-01-13 20:21:00,32.4,5.0,29.84,WNW,292,4.6,4.6,31,0.00,CLR,,0.24,WeatherDisplay:10.37,2013-01-14 01:21:00,
2013-01-13 20:26:00,32.4,5.0,29.84,West,270,4.6,4.6,31,0.00,CLR,,0.24,WeatherDisplay:10.37,2013-01-14 01:26:00,
2013-01-13 20:31:00,32.2,4.9,29.85,West,270,4.6,4.6,31,0.00,CLR,,0.24,WeatherDisplay:10.37,2013-01-14 01:31:00,
2013-01-13 20:36:00,32.4,5.0,29.85,SSW,202,4.7,4.7,31,0.00,CLR,,0.24,WeatherDisplay:10.37,2013-01-14 01:36:00,
2013-01-13 20:41:00,32.2,4.9,29.87,SSW,202,4.7,4.7,31,0.00,CLR,,0.24,WeatherDisplay:10.37,2013-01-14 01:41:00,
2013-01-13 20:46:00,32.0,4.7,29.87,SSW,202,4.7,4.7,31,0.00,CLR,,0.24,WeatherDisplay:10.37,2013-01-14 01:46:00,
2013-01-13 20:51:00,32.0,6.1,29.81,SSW,202,4.9,4.9,33,0.00,CLR,,0.24,WeatherDisplay:10.37,2013-01-14 01:51:00,
2013-01-13 20:56:00,31.8,6.6,29.81,West,270,5.8,5.8,34,0.00,CLR,,0.24,WeatherDisplay:10.37,2013-01-14 01:56:00,
2013-01-13 21:01:00,31.6,5.8,29.81,West,270,5.8,5.8,33,0.00,CLR,,0.24,WeatherDisplay:10.37,2013-01-14 02:01:00,
2013-01-13 21:06:00,31.5,5.6,29.83,WNW,292,4.9,4.9,33,0.00,CLR,,0.24,WeatherDisplay:10.37,2013-01-14 02:06:00,
2013-01-13 21:11:00,31.5,5.6,29.83,West,270,4.9,4.9,33,0.00,CLR,,0.24,WeatherDisplay:10.37,2013-01-14 02:11:00,
2013-01-13 21:16:00,31.5,5.6,29.83,West,270,4.9,4.9,33,0.00,CLR,,0.24,WeatherDisplay:10.37,2013-01-14 02:16:00,
2013-01-13 21:21:00,31.3,5.5,29.83,WNW,292,5.9,5.9,33,0.00,CLR,,0.24,WeatherDisplay:10.37,2013-01-14 02:21:00,
2013-01-13 21:26:00,31.3,5.5,29.84,WNW,292,5.9,5.9,33,0.00,CLR,,0.24,WeatherDisplay:10.37,2013-01-14 02:26:00,
2013-01-13 21:31:00,31.3,5.5,29.84,WNW,292,5.9,5.9,33,0.00,CLR,,0.24,WeatherDisplay:10.37,2013-01-14 02:31:00,
2013-01-13 21:36:00,31.1,5.3,29.85,WSW,247,5.9,5.9,33,0.00,CLR,,0.24,WeatherDisplay:10.37,2013-01-14 02:36:00,
2013-01-13 21:41:00,30.9,5.1,29.86,WSW,247,5.9,5.9,33,0.00,CLR,,0.24,WeatherDisplay:10.37,2013-01-14 02:41:00,
2013-01-13 21:46:00,30.9,5.1,29.87,West,270,5.9,5.9,33,0.00,CLR,,0.24,WeatherDisplay:10.37,2013-01-14 02:46:00,
2013-01-13 21:51:00,30.9,5.1,29.87,West,270,5.9,5.9,33,0.00,CLR,,0.24,WeatherDisplay:10.37,2013-01-14 02:51:00,
2013-01-13 21:56:00,30.7,5.0,29.86,West,270,5.9,5.9,33,0.00,CLR,,0.24,WeatherDisplay:10.37,2013-01-14 02:56:00,
2013-01-13 22:01:00,30.7,5.0,29.86,WNW,292,5.9,5.9,33,0.00,CLR,,0.24,WeatherDisplay:10.37,2013-01-14 03:01:00,
2013-01-13 22:06:00,30.7,5.0,29.85,WNW,292,4.9,4.9,33,0.00,CLR,,0.24,WeatherDisplay:10.37,2013-01-14 03:06:00,
2013-01-13 22:11:00,30.4,4.7,29.83,NW,315,4.9,4.9,33,0.00,CLR,,0.24,WeatherDisplay:10.37,2013-01-14 03:11:00,
2013-01-13 22:16:00,30.0,4.3,29.84,NW,315,8.1,8.1,33,0.00,CLR,,0.24,WeatherDisplay:10.37,2013-01-14 03:16:00,
2013-01-13 22:21:00,29.8,4.2,29.85,NW,315,8.1,8.1,33,0.00,CLR,,0.24,WeatherDisplay:10.37,2013-01-14 03:21:00,
2013-01-13 22:26:00,29.7,4.0,29.86,NW,315,8.1,8.1,33,0.00,CLR,,0.24,WeatherDisplay:10.37,2013-01-14 03:26:00,
2013-01-13 22:31:00,29.7,4.0,29.87,NW,315,8.1,8.1,33,0.00,CLR,,0.24,WeatherDisplay:10.37,2013-01-14 03:31:00,
2013-01-13 22:36:00,29.3,3.7,29.86,NW,315,8.1,8.1,33,0.00,CLR,,0.24,WeatherDisplay:10.37,2013-01-14 03:36:00,
2013-01-13 22:41:00,29.3,3.7,29.87,WNW,292,8.1,8.1,33,0.00,CLR,,0.24,WeatherDisplay:10.37,2013-01-14 03:41:00,
2013-01-13 22:46:00,29.3,3.7,29.88,West,270,8.1,8.1,33,0.00,CLR,,0.24,WeatherDisplay:10.37,2013-01-14 03:46:00,
2013-01-13 22:51:00,29.1,3.5,29.87,West,270,8.1,8.1,33,0.00,CLR,,0.24,WeatherDisplay:10.37,2013-01-14 03:51:00,
2013-01-13 22:56:00,28.9,3.4,29.88,West,270,8.1,8.1,33,0.00,CLR,,0.24,WeatherDisplay:10.37,2013-01-14 03:56:00,
2013-01-13 23:01:00,28.6,3.1,29.87,West,270,8.1,8.1,33,0.00,CLR,,0.24,WeatherDisplay:10.37,2013-01-14 04:01:00,
2013-01-13 23:06:00,28.6,2.4,29.86,West,270,4.6,4.6,32,0.00,CLR,,0.24,WeatherDisplay:10.37,2013-01-14 04:06:00,
2013-01-13 23:11:00,28.2,2.1,29.86,WSW,247,4.6,4.6,32,0.00,CLR,,0.24,WeatherDisplay:10.37,2013-01-14 04:11:00,
2013-01-13 23:16:00,28.2,2.1,29.87,WSW,247,4.6,4.6,32,0.00,CLR,,0.24,WeatherDisplay:10.37,2013-01-14 04:16:00,
2013-01-13 23:21:00,28.0,1.9,29.87,WSW,247,5.8,5.8,32,0.00,CLR,,0.24,WeatherDisplay:10.37,2013-01-14 04:21:00,
2013-01-13 23:26:00,27.9,1.8,29.89,WSW,247,5.8,5.8,32,0.00,CLR,,0.24,WeatherDisplay:10.37,2013-01-14 04:26:00,
2013-01-13 23:31:00,27.7,1.6,29.90,WSW,247,5.8,5.8,32,0.00,CLR,,0.24,WeatherDisplay:10.37,2013-01-14 04:31:00,
2013-01-13 23:36:00,27.7,1.6,29.90,WSW,247,7.1,7.1,32,0.00,CLR,,0.24,WeatherDisplay:10.37,2013-01-14 04:36:00,
2013-01-13 23:41:00,27.5,1.4,29.91,WSW,247,7.1,7.1,32,0.00,CLR,,0.24,WeatherDisplay:10.37,2013-01-14 04:41:00,
2013-01-13 23:46:00,27.3,1.3,29.92,West,270,7.1,7.1,32,0.00,CLR,,0.24,WeatherDisplay:10.37,2013-01-14 04:46:00,
2013-01-13 23:51:00,27.1,1.1,29.92,WNW,292,7.1,7.1,32,0.00,CLR,,0.24,WeatherDisplay:10.37,2013-01-14 04:51:00,
2013-01-13 23:56:00,26.8,0.8,29.91,WNW,292,7.1,7.1,32,0.00,CLR,,0.24,WeatherDisplay:10.37,2013-01-14 04:56:00,